Time,TemperatureF,DewpointF,PressureIn,WindDirection,WindDirectionDegrees,WindSpeedMPH,WindSpeedGustMPH,Humidity,HourlyPrecipIn,Conditions,Clouds,dailyrainin,SoftwareType,DateUTC
2013-04-09 01:10:00,38.0,37.0,-100.00,NNE,25,18.0,25.0,99,0.00,,,0.00,,2013-04-09 06:10:00,
2013-04-09 01:20:00,38.0,37.0,-100.00,NNE,25,21.0,24.0,99,0.00,,,0.00,,2013-04-09 06:20:00,
2013-04-09 01:30:00,38.0,37.0,-100.00,NNE,25,19.0,27.0,99,0.00,,,0.00,,2013-04-09 06:30:00,
2013-04-09 01:40:00,38.0,37.0,-100.00,NNE,20,18.0,26.0,99,0.00,,,0.00,,2013-04-09 06:40:00,
2013-04-09 01:50:00,38.0,37.0,-100.00,NNE,20,16.0,21.0,99,0.00,,,0.00,,2013-04-09 06:50:00,
2013-04-09 02:10:00,36.0,36.0,-100.00,NNE,15,19.0,26.0,99,0.00,,,0.00,,2013-04-09 07:10:00,
2013-04-09 02:20:00,36.0,36.0,-100.00,North,10,20.0,26.0,99,0.00,,,0.00,,2013-04-09 07:20:00,
2013-04-09 02:30:00,36.0,36.0,-100.00,North,10,19.0,26.0,99,0.00,,,0.00,,2013-04-09 07:30:00,
2013-04-09 02:40:00,36.0,36.0,-100.00,NNE,20,19.0,26.0,99,0.00,,,0.00,,2013-04-09 07:40:00,
2013-04-09 02:50:00,36.0,36.0,-100.00,NNE,25,17.0,23.0,99,0.00,,,0.00,,2013-04-09 07:50:00,
2013-04-09 03:00:00,36.0,36.0,-100.00,NNE,30,17.0,22.0,99,0.00,,,0.00,,2013-04-09 08:00:00,
2013-04-09 03:10:00,36.0,36.0,-100.00,NNE,25,17.0,23.0,99,0.00,,,0.00,,2013-04-09 08:10:00,
2013-04-09 03:20:00,36.0,36.0,-100.00,NNE,25,17.0,24.0,99,0.00,,,0.00,,2013-04-09 08:20:00,
2013-04-09 03:30:00,36.0,36.0,-100.00,NNE,25,16.0,24.0,99,0.00,,,0.00,,2013-04-09 08:30:00,
2013-04-09 03:40:00,36.0,36.0,-100.00,NNE,30,18.0,24.0,99,0.00,,,0.00,,2013-04-09 08:40:00,
2013-04-09 03:50:00,36.0,36.0,-100.00,NE,35,21.0,24.0,99,0.00,,,0.00,,2013-04-09 08:50:00,
2013-04-09 04:00:00,36.0,36.0,-100.00,NE,40,17.0,24.0,99,0.00,,,0.00,,2013-04-09 09:00:00,
2013-04-09 04:10:00,36.0,36.0,-100.00,NNE,30,19.0,24.0,99,0.00,,,0.00,,2013-04-09 09:10:00,
2013-04-09 04:40:00,35.0,34.0,-100.00,NNE,30,22.0,29.0,99,0.01,,,0.01,,2013-04-09 09:40:00,
2013-04-09 05:00:00,35.0,34.0,-100.00,NNE,30,21.0,27.0,99,0.01,,,0.01,,2013-04-09 10:00:00,
2013-04-09 05:10:00,35.0,34.0,-100.00,NNE,30,19.0,27.0,99,0.00,,,0.01,,2013-04-09 10:10:00,
2013-04-09 05:20:00,35.0,34.0,-100.00,NNE,25,21.0,27.0,99,0.01,,,0.01,,2013-04-09 10:20:00,
2013-04-09 05:30:00,35.0,34.0,-100.00,NNE,30,20.0,26.0,99,0.01,,,0.01,,2013-04-09 10:30:00,
2013-04-09 05:40:00,34.0,34.0,-100.00,NNE,20,22.0,26.0,99,0.00,,,0.02,,2013-04-09 10:40:00,
2013-04-09 05:50:00,34.0,34.0,-100.00,NNE,20,22.0,26.0,99,0.01,,,0.02,,2013-04-09 10:50:00,
2013-04-09 06:30:00,33.0,32.0,-100.00,NNE,15,20.0,28.0,99,0.02,,,0.03,,2013-04-09 11:30:00,
2013-04-09 06:40:00,32.0,32.0,-100.00,NNE,15,24.0,32.0,99,0.01,,,0.03,,2013-04-09 11:40:00,
2013-04-09 06:50:00,32.0,32.0,-100.00,NNE,20,24.0,30.0,99,0.01,,,0.03,,2013-04-09 11:50:00,
2013-04-09 07:10:00,31.0,30.0,-100.00,NNE,15,21.0,27.0,99,0.01,,,0.03,,2013-04-09 12:10:00,
2013-04-09 07:20:00,31.0,30.0,-100.00,NNE,20,23.0,28.0,99,0.02,,,0.03,,2013-04-09 12:20:00,
2013-04-09 07:30:00,31.0,30.0,-100.00,North,5,17.0,25.0,99,0.02,,,0.04,,2013-04-09 12:30:00,
2013-04-09 07:40:00,31.0,30.0,-100.00,NNE,15,19.0,23.0,99,0.01,,,0.04,,2013-04-09 12:40:00,
2013-04-09 07:50:00,31.0,30.0,-100.00,North,10,17.0,21.0,99,0.01,,,0.04,,2013-04-09 12:50:00,
2013-04-09 08:00:00,31.0,30.0,-100.00,NNE,15,12.0,20.0,99,0.02,,,0.04,,2013-04-09 13:00:00,
2013-04-09 08:20:00,31.0,30.0,-100.00,NNE,25,16.0,19.0,99,0.01,,,0.04,,2013-04-09 13:20:00,
2013-04-09 08:30:00,31.0,30.0,-100.00,NNE,20,13.0,20.0,99,0.01,,,0.05,,2013-04-09 13:30:00,
2013-04-09 08:40:00,31.0,30.0,-100.00,NNE,15,10.0,18.0,99,0.01,,,0.05,,2013-04-09 13:40:00,
2013-04-09 08:50:00,31.0,30.0,-100.00,North,0,12.0,16.0,99,0.01,,,0.05,,2013-04-09 13:50:00,
2013-04-09 09:00:00,31.0,30.0,-100.00,North,355,12.0,15.0,99,0.02,,,0.05,,2013-04-09 14:00:00,
2013-04-09 09:10:00,31.0,30.0,-100.00,North,0,12.0,17.0,99,0.01,,,0.05,,2013-04-09 14:10:00,
2013-04-09 09:20:00,30.0,30.0,-100.00,North,0,12.0,16.0,99,0.02,,,0.05,,2013-04-09 14:20:00,
2013-04-09 09:40:00,29.0,28.0,-100.00,North,5,11.0,13.0,99,0.01,,,0.06,,2013-04-09 14:40:00,
2013-04-09 09:50:00,29.0,28.0,-100.00,North,5,9.0,12.0,99,0.00,,,0.06,,2013-04-09 14:50:00,
2013-04-09 10:00:00,29.0,28.0,-100.00,North,5,9.0,12.0,99,0.00,,,0.06,,2013-04-09 15:00:00,
2013-04-09 10:20:00,29.0,28.0,-100.00,NNE,15,7.0,10.0,99,0.00,,,0.06,,2013-04-09 15:20:00,
2013-04-09 10:30:00,29.0,28.0,-100.00,North,5,7.0,9.0,99,0.00,,,0.06,,2013-04-09 15:30:00,
2013-04-09 10:40:00,29.0,28.0,-100.00,NNE,15,7.0,9.0,99,0.00,,,0.06,,2013-04-09 15:40:00,
2013-04-09 10:50:00,29.0,28.0,-100.00,North,10,6.0,10.0,99,0.00,,,0.06,,2013-04-09 15:50:00,
2013-04-09 11:00:00,29.0,28.0,-100.00,North,5,7.0,9.0,99,0.00,,,0.06,,2013-04-09 16:00:00,
2013-04-09 11:10:00,29.0,28.0,-100.00,North,5,7.0,9.0,99,0.00,,,0.06,,2013-04-09 16:10:00,
2013-04-09 11:20:00,28.0,28.0,-100.00,North,10,7.0,9.0,99,0.00,,,0.06,,2013-04-09 16:20:00,
2013-04-09 11:30:00,28.0,28.0,-100.00,North,5,7.0,9.0,99,0.00,,,0.06,,2013-04-09 16:30:00,
2013-04-09 11:50:00,28.0,28.0,-100.00,North,0,7.0,9.0,99,0.00,,,0.06,,2013-04-09 16:50:00,
2013-04-09 13:50:00,29.0,28.0,-100.00,North,5,7.0,7.0,99,0.00,,,0.06,,2013-04-09 18:50:00,
2013-04-09 14:00:00,29.0,28.0,-100.00,North,5,6.0,9.0,99,0.00,,,0.06,,2013-04-09 19:00:00,
2013-04-09 14:20:00,29.0,28.0,-100.00,NNE,15,7.0,9.0,99,0.00,,,0.06,,2013-04-09 19:20:00,
2013-04-09 14:30:00,29.0,28.0,-100.00,North,5,7.0,9.0,99,0.00,,,0.06,,2013-04-09 19:30:00,
2013-04-09 14:40:00,29.0,28.0,-100.00,North,10,7.0,9.0,99,0.00,,,0.06,,2013-04-09 19:40:00,
2013-04-09 14:50:00,29.0,28.0,-100.00,North,5,7.0,9.0,99,0.00,,,0.06,,2013-04-09 19:50:00,
2013-04-09 15:00:00,29.0,28.0,-100.00,North,0,6.0,9.0,99,0.00,,,0.06,,2013-04-09 20:00:00,
2013-04-09 16:20:00,30.0,30.0,-100.00,North,5,7.0,9.0,99,0.00,,,0.06,,2013-04-09 21:20:00,
2013-04-09 16:30:00,30.0,30.0,-100.00,North,0,6.0,8.0,99,0.00,,,0.06,,2013-04-09 21:30:00,
2013-04-09 16:40:00,30.0,30.0,-100.00,North,0,6.0,9.0,99,0.00,,,0.06,,2013-04-09 21:40:00,
2013-04-09 16:50:00,30.0,30.0,-100.00,North,5,7.0,9.0,99,0.00,,,0.06,,2013-04-09 21:50:00,
2013-04-09 17:00:00,30.0,30.0,-100.00,North,10,7.0,9.0,99,0.00,,,0.06,,2013-04-09 22:00:00,
2013-04-09 17:10:00,30.0,30.0,-100.00,North,5,7.0,10.0,99,0.00,,,0.06,,2013-04-09 22:10:00,
2013-04-09 17:20:00,31.0,30.0,-100.00,North,5,7.0,9.0,99,0.00,,,0.06,,2013-04-09 22:20:00,
2013-04-09 17:30:00,31.0,30.0,-100.00,North,5,7.0,9.0,99,0.01,,,0.06,,2013-04-09 22:30:00,
2013-04-09 17:40:00,31.0,30.0,-100.00,North,5,7.0,10.0,99,0.01,,,0.06,,2013-04-09 22:40:00,
2013-04-09 17:50:00,31.0,30.0,-100.00,North,5,7.0,9.0,99,0.01,,,0.07,,2013-04-09 22:50:00,
2013-04-09 18:50:00,32.0,32.0,-100.00,NNE,20,4.0,7.0,99,0.01,,,0.07,,2013-04-09 23:50:00,
2013-04-09 19:00:00,32.0,32.0,-100.00,NNE,20,4.0,6.0,99,0.01,,,0.07,,2013-04-10 00:00:00,
2013-04-09 19:10:00,32.0,32.0,-100.00,North,10,3.0,5.0,99,0.01,,,0.07,,2013-04-10 00:10:00,
2013-04-09 19:20:00,32.0,32.0,-100.00,North,5,4.0,5.0,99,0.02,,,0.08,,2013-04-10 00:20:00,
2013-04-09 19:30:00,32.0,32.0,-100.00,North,5,3.0,4.0,99,0.01,,,0.08,,2013-04-10 00:30:00,
2013-04-09 19:40:00,32.0,32.0,-100.00,North,5,2.0,4.0,99,0.01,,,0.08,,2013-04-10 00:40:00,
2013-04-09 20:30:00,32.0,32.0,-100.00,North,5,1.0,2.0,99,0.01,,,0.08,,2013-04-10 01:30:00,
2013-04-09 21:20:00,31.0,30.0,-100.00,North,5,3.0,3.0,99,0.00,,,0.09,,2013-04-10 02:20:00,
2013-04-09 21:30:00,31.0,30.0,-100.00,North,5,2.0,4.0,99,0.00,,,0.09,,2013-04-10 02:30:00,
2013-04-09 21:40:00,31.0,30.0,-100.00,North,5,4.0,4.0,99,0.00,,,0.09,,2013-04-10 02:40:00,
2013-04-09 21:50:00,31.0,30.0,-100.00,North,5,3.0,4.0,99,0.00,,,0.09,,2013-04-10 02:50:00,
2013-04-09 22:00:00,31.0,30.0,-100.00,North,5,3.0,4.0,99,0.01,,,0.09,,2013-04-10 03:00:00,
2013-04-09 22:20:00,31.0,30.0,-100.00,North,5,3.0,4.0,99,0.00,,,0.09,,2013-04-10 03:20:00,
2013-04-09 22:30:00,31.0,30.0,-100.00,NNE,15,2.0,4.0,99,0.00,,,0.09,,2013-04-10 03:30:00,
2013-04-09 22:40:00,31.0,30.0,-100.00,NNE,30,2.0,3.0,99,0.00,,,0.09,,2013-04-10 03:40:00,
2013-04-09 22:50:00,31.0,30.0,-100.00,NNE,20,2.0,3.0,99,0.00,,,0.09,,2013-04-10 03:50:00,
2013-04-09 23:00:00,31.0,30.0,-100.00,NNE,30,3.0,4.0,99,0.00,,,0.09,,2013-04-10 04:00:00,
2013-04-09 23:30:00,31.0,30.0,-100.00,NE,40,3.0,4.0,99,0.00,,,0.09,,2013-04-10 04:30:00,
2013-04-09 23:40:00,31.0,30.0,-100.00,NE,50,6.0,7.0,99,0.00,,,0.09,,2013-04-10 04:40:00,
2013-04-09 23:50:00,31.0,30.0,-100.00,NE,50,4.0,6.0,99,0.00,,,0.09,,2013-04-10 04:50:00,